Vacaville, CA

12:08 PM PDT on October 01, 2016 (GMT -0700)
Nut Tree

Weather History for KVCB - October, 2010

Change the Weather History Date:

Friday, October 8, 2010

  Actual Average Record
Temperature  
Mean Temperature 62 °F -  
Max Temperature 80 °F 83 °F 97 °F (1980)
Min Temperature 46 °F 50 °F 40 °F (1975)
Degree Days  
Heating Degree Days 2    
Growing Degree Days 12 (Base 50)    
Moisture  
Dew Point 44 °F    
Average Humidity 56    
Maximum Humidity 83    
Minimum Humidity 28    
Precipitation  
Precipitation 0.00 in - - ()
Sea Level Pressure  
Sea Level Pressure 30.18 in    
Wind  
Wind Speed 2 mph (SSE)    
Max Wind Speed 9 mph    
Max Gust Speed -    
Visibility 10 miles    
Events      
Averages and records for this station are not official NWS values.
T = Trace of Precipitation, MM = Missing Value Source: NWS Daily Summary

Daily Weather History Graph

Daily Weather History Graph

Search for Another Location

Airport or City:

Trip Planner

Search our weather history database for the weather conditions in past years. The results will help you decide how hot, cold, wet, or windy it might be!

Date:

Astronomy

Oct. 08, 2010 Rise Set
Actual Time 7:10 AM PDT 6:39 PM PDT
Civil Twilight 6:43 AM PDT 7:06 PM PDT
Nautical Twilight 6:13 AM PDT 7:36 PM PDT
Astronomical Twilight 5:42 AM PDT 8:07 PM PDT
Moon 8:21 AM PDT (10/8) 6:59 PM PDT (10/8)
Length of Visible Light 12h 22m
Length of Day
11h 29m
New Moon, 1% of the Moon is Illuminated
Oct 8
New Moon
Oct 14
First Quarter
Oct 22
Full
Oct 30
Last Quarter
Nov 5
New

Hourly Weather History & Observations

Time (PDT) Temp. Dew Point Humidity Pressure Visibility Wind Dir Wind Speed Gust Speed Precip Events Conditions
12:53 AM 55.0 °F 45.0 °F 69% 30.16 in 10.0 mi ENE 3.5 mph - N/A   Clear
1:53 AM 52.0 °F 44.1 °F 74% 30.16 in 10.0 mi Calm Calm - N/A   Clear
2:53 AM 50.0 °F 43.0 °F 77% 30.17 in 10.0 mi Calm Calm - N/A   Clear
3:53 AM 50.0 °F 44.1 °F 80% 30.17 in 10.0 mi Calm Calm - N/A   Clear
4:53 AM 48.0 °F 42.1 °F 80% 30.18 in 10.0 mi Calm Calm - N/A   Clear
5:53 AM 48.0 °F 43.0 °F 83% 30.18 in 10.0 mi Calm Calm - N/A   Clear
6:53 AM 46.9 °F 41.0 °F 80% 30.18 in 10.0 mi Calm Calm - N/A   Clear
7:53 AM 52.0 °F 45.0 °F 77% 30.19 in 10.0 mi Calm Calm - N/A   Clear
8:53 AM 60.1 °F 45.0 °F 57% 30.20 in 10.0 mi Calm Calm - N/A   Clear
9:53 AM 64.0 °F 46.0 °F 52% 30.22 in 10.0 mi SE 3.5 mph - N/A   Clear
10:53 AM 68.0 °F 46.9 °F 47% 30.22 in 10.0 mi Calm Calm - N/A   Clear
11:53 AM 73.0 °F 44.1 °F 35% 30.21 in 10.0 mi SSW 3.5 mph - N/A   Clear
12:53 PM 75.0 °F 45.0 °F 34% 30.20 in 10.0 mi Variable 3.5 mph - N/A   Clear
2:53 PM 78.1 °F 44.1 °F 30% 30.16 in 10.0 mi SE 6.9 mph - N/A   Clear
3:53 PM 79.0 °F 43.0 °F 28% 30.14 in 10.0 mi South 5.8 mph - N/A   Clear
4:53 PM 78.1 °F 43.0 °F 29% 30.14 in 10.0 mi South 8.1 mph - N/A   Clear
5:53 PM 75.9 °F 45.0 °F 33% 30.15 in 10.0 mi South 9.2 mph - N/A   Clear
6:53 PM 72.0 °F 46.9 °F 41% 30.16 in 10.0 mi Calm Calm - N/A   Clear
7:53 PM 69.1 °F 46.0 °F 44% 30.17 in 10.0 mi Calm Calm - N/A   Clear
8:53 PM 63.0 °F 46.9 °F 56% 30.17 in 10.0 mi Calm Calm - N/A   Clear
9:53 PM 57.9 °F 45.0 °F 62% 30.17 in 10.0 mi Calm Calm - N/A   Clear
10:53 PM 55.9 °F 44.1 °F 64% 30.18 in 10.0 mi Calm Calm - N/A   Clear
11:53 PM 55.0 °F 44.1 °F 67% 30.18 in 10.0 mi Calm Calm - N/A   Clear